Kezdőlap
METAR-TAF:

METAR-TAF

Repülőterek :

Marshalltown Municipal Airport

Marshalltown, Iowa, Amerikai Egyesült Államok

földrajzi szélesség: 42-06-38N, földrajzi hosszúság: 092-54-58W, magasság: 296 m

Jelenlegi meteorológiai megfigyelések

A jelentés 59 perccel ezelõtt készült, 13:53 UTC
Nyugati szél 6 kt
Hőmérséklet 26°C
Páratartalom 84%
Légköri nyomás 1018 hPa
Látótávolság: 14.5 km
Derült ég

METAR: KMIW 281353Z AUTO 27006KT 9SM CLR 26/23 A3006 RMK AO2 SLP170 T02610228

Idő: 09:52 (14:52 UTC)


TAF: hiányzik

Meteorológiai megfigyelések és előrejelzések több, mint 4000 repülőtéren (METAR és TAF jelentéseket).

A térképen piros és sárga pontok jelzik az elérhető meteorológiai állomásokat.

Mozgassa az egeret a pont fölött, hogy megjelenjen az állomás neve.

Azután kattintson az időjárási megfigyelések és előrejelzések megtekintéséhez.

A térkép megváltoztatása: kattintson a fekete keresztel jelölt zöld gombra ráközelítéshez, a vonallal jelölt zöld gombra távolításhoz, vagy a zöld nyilakra a szomszédos térképek eléréséhez.


METAR-TAF: